Wind_Speed
8 9 11 13 22 30 35 36 38 34 34 37 43 44 46 44 44 45 46 44 46 43 42 42 42 41 36 31 30 32 23 21 11 12 29 29 34 31 29 27 27 26 26
11 11 11 13 13 20 28 29 35 37 36 38 39 43 47 47 47 47 47 45 46 47 47 42 39 37 37 39 34 32 27 25 16 18 22 33 36 33 34 31 30 26 25
13 12 12 12 12 14 14 26 32 34 36 36 41 44 46 48 49 52 53 51 48 49 49 47 45 43 41 38 43 40 39 33 27 25 20 29 34 37 35 31 29 29 22
17 15 14 12 13 14 17 20 21 33 37 38 42 41 42 45 48 51 52 49 47 47 48 50 50 54 54 51 44 42 39 34 31 32 27 33 34 37 38 34 28 29 25
19 19 17 15 13 12 14 16 17 17 23 36 39 42 44 46 47 47 46 45 43 42 45 49 49 52 53 51 47 44 43 36 34 30 27 31 29 33 36 31 30 28 24
19 20 19 19 15 9 11 11 16 19 23 24 25 30 33 36 40 48 46 41 41 39 34 35 34 39 45 47 48 51 54 47 36 27 28 31 33 35 35 35 31 30 15
19 22 20 18 17 11 9 7 8 15 18 21 26 30 28 29 33 36 37 27 27 31 34 33 35 42 45 49 44 45 47 50 51 47 38 36 35 43 39 35 34 35 27
21 22 22 18 14 12 8 7 7 10 12 18 22 24 25 26 26 26 31 27 28 31 33 31 29 29 37 41 40 40 41 46 45 41 45 48 44 49 54 52 49 34 21
20 21 23 18 11 10 9 7 11 7 9 13 16 19 21 18 17 22 31 28 26 25 28 31 32 33 36 41 36 31 27 28 37 40 37 37 39 40 50 34 30 28 15
23 23 20 16 13 11 9 10 9 10 11 12 13 13 14 16 17 24 31 27 26 24 24 25 29 32 33 37 35 31 27 31 35 28 25 29 37 39 48 45 44 34 21
24 21 16 16 14 11 12 10 14 16 16 16 16 15 18 22 25 23 23 25 26 25 26 24 23 22 28 31 29 32 32 31 30 32 27 26 29 35 39 34 38 36 30
24 17 19 19 16 14 15 16 16 21 22 18 23 20 21 22 20 19 22 26 30 31 27 24 22 20 21 21 24 28 30 31 30 29 28 26 29 31 34 37 37 35 31
21 21 20 18 17 17 21 21 18 21 19 17 17 17 17 23 24 25 26 25 22 24 25 25 26 26 27 24 20 22 26 29 29 25 22 22 30 32 33 35 35 35 30
19 18 20 19 18 16 13 18 17 14 15 17 15 15 14 19 25 25 23 21 21 25 24 24 25 26 24 21 17 19 21 24 28 25 23 24 26 27 27 28 25 28 24
22 21 20 23 16 18 16 11 16 13 15 19 18 21 19 15 21 27 26 28 28 29 29 26 24 22 21 20 19 19 19 22 23 23 24 24 24 26 24 27 22 23 21
23 23 22 24 22 20 22 22 19 18 17 20 24 26 21 25 23 22 22 24 26 29 25 22 18 19 18 18 18 16 16 17 19 21 22 23 22 23 23 25 23 23 23
27 25 24 24 21 20 20 18 19 27 25 22 19 21 23 24 21 21 22 23 23 22 19 17 16 16 17 17 16 16 15 16 18 19 20 21 21 19 21 21 22 21 21
28 29 25 21 21 20 19 19 20 19 17 19 21 22 22 21 20 20 21 22 17 14 14 14 14 15 13 13 13 12 11 12 14 14 14 15 17 16 18 20 22 22 21
26 27 24 23 22 23 21 20 19 20 19 19 19 18 20 20 21 19 17 14 13 11 11 11 12 12 12 11 11 11 13 13 12 15 13 15 18 16 17 18 18 22 22
27 30 24 25 23 21 19 19 17 19 17 16 15 14 16 18 15 14 12 15 13 11 10 10 9 9 10 10 13 13 13 12 13 14 14 16 17 17 15 18 18 20 22
24 23 23 21 21 21 21 21 20 18 15 15 15 15 16 14 15 14 13 14 12 12 11 10 10 10 10 11 12 13 12 13 12 12 13 14 16 17 16 15 17 18 19
22 20 19 21 21 20 21 21 21 20 19 18 17 15 16 13 14 13 11 11 11 10 9 9 8 8 9 10 12 14 14 15 14 13 12 12 12 14 14 15 14 16 18
17 17 18 18 19 20 19 18 18 17 16 15 15 13 9 10 10 9 8 7 6 5 5 5 7 8 9 10 11 12 11 11 13 14 15 15 13 13 13 14 15 17 20
15 16 18 16 16 16 16 16 15 15 14 12 11 10 9 8 7 5 4 4 3 5 6 7 8 11 12 13 13 14 13 13 14 14 15 15 13 13 14 16 17 19 19
13 15 14 13 12 13 14 13 12 12 12 11 10 9 8 7 6 5 4 4 6 7 9 12 12 12 14 15 14 16 14 15 15 15 15 16 16 16 16 16 16 16 17
12 12 12 13 12 13 12 11 11 10 10 9 7 6 5 4 4 5 6 7 9 10 10 11 12 13 13 13 15 16 15 16 15 17 15 14 15 15 15 16 16 15 17
Wind_Direction
307 299 287 274 244 236 226 222 220 217 210 206 203 203 205 206 205 204 206 206 205 210 213 213 211 205 200 193 188 184 188 178 150 156 184 181 184 183 182 182 184 182 189
313 305 301 295 279 249 235 230 220 216 214 209 203 202 203 205 204 203 206 209 207 207 206 209 210 205 200 189 183 190 190 191 149 145 164 175 179 184 178 177 180 185 188
307 305 298 300 301 284 289 243 225 216 212 209 206 204 203 204 204 207 210 210 212 211 207 203 201 195 193 192 192 191 197 191 179 162 154 180 175 175 178 181 182 184 188
313 306 297 291 296 292 288 288 256 222 218 211 207 205 206 207 207 209 211 214 214 213 209 207 203 199 197 195 196 193 189 182 171 160 163 171 175 183 181 177 174 179 184
307 297 296 290 287 292 295 277 277 264 238 213 208 209 209 210 211 212 214 214 212 210 210 208 206 205 204 199 187 183 176 168 164 161 160 168 176 177 181 181 171 171 181
303 294 293 294 294 283 290 281 266 259 251 239 221 215 212 215 217 217 214 211 207 205 206 203 208 209 207 195 186 183 181 170 172 164 171 171 180 182 180 176 168 163 167
298 289 284 281 281 283 280 269 261 257 246 237 230 224 218 218 220 221 220 210 206 208 206 198 197 201 195 192 189 186 190 189 189 179 173 177 175 181 177 176 178 182 186
288 282 279 274 271 280 278 290 253 244 242 232 223 222 219 218 217 213 206 198 197 199 198 194 195 182 185 179 184 190 190 191 190 186 197 193 199 189 190 191 189 181 179
280 279 271 264 258 253 240 223 231 201 209 207 204 205 208 207 208 204 194 183 180 182 184 182 185 187 191 190 179 176 177 182 191 194 208 214 211 207 195 176 167 160 143
276 272 261 246 233 224 228 193 201 170 179 173 166 180 189 171 189 193 184 165 152 156 164 176 187 190 190 182 172 169 165 179 183 182 192 194 200 199 198 191 174 173 166
276 272 245 241 226 204 187 189 170 149 149 142 138 145 150 154 161 179 179 166 155 148 153 160 173 188 183 183 186 185 186 187 185 185 186 186 189 185 185 183 186 183 180
265 237 221 213 205 187 171 162 156 140 129 123 119 123 135 139 147 154 157 152 151 141 141 144 143 151 164 173 189 193 193 185 176 171 169 168 173 179 186 190 195 191 194
252 201 190 187 180 174 158 147 136 136 133 129 128 122 117 130 129 138 138 139 142 145 154 156 156 161 162 170 180 188 187 179 168 160 161 167 181 192 191 193 203 202 202
203 169 160 154 149 144 134 141 141 140 129 127 125 120 119 119 124 129 132 132 142 138 140 141 143 147 150 150 158 173 177 180 176 167 167 178 183 180 179 185 182 189 189
175 159 148 136 126 117 119 107 115 115 138 138 132 132 135 124 133 137 140 136 141 139 137 136 133 136 140 148 157 168 174 179 174 174 170 168 172 177 179 185 182 184 192
158 151 146 133 123 119 110 91 100 116 132 134 136 142 141 138 138 139 137 137 141 145 134 131 133 142 145 152 158 163 175 178 178 178 174 176 175 176 175 183 188 190 196
151 146 134 126 133 133 117 118 107 89 101 110 122 131 135 133 139 141 142 139 144 147 131 136 142 147 151 160 168 176 172 181 192 189 188 187 187 188 185 191 198 197 198
138 133 125 132 132 125 123 120 115 111 106 94 107 122 122 130 137 140 144 143 132 131 133 138 142 149 156 165 173 174 170 173 184 189 194 193 196 198 198 201 203 202 201
119 114 123 122 118 120 120 115 111 108 108 109 113 112 122 126 127 133 140 129 120 123 128 138 147 153 161 171 176 177 174 172 181 194 195 198 203 200 206 209 209 206 200
102 110 115 116 122 121 122 118 118 117 121 124 124 126 123 127 126 136 147 140 136 136 145 147 151 162 166 171 176 177 178 179 187 191 197 202 208 208 212 210 209 205 204
104 105 112 118 125 130 131 133 131 131 132 129 135 149 160 150 145 149 151 149 145 145 153 153 161 165 175 177 174 172 175 181 185 189 195 201 208 210 216 215 209 206 201
103 113 122 123 128 128 128 128 130 132 132 131 135 147 147 144 143 145 144 148 148 150 154 155 158 175 185 186 187 185 185 185 188 191 196 204 207 210 213 210 202 198 194
112 116 116 115 115 120 119 118 120 123 127 132 136 140 130 120 115 120 128 138 135 142 152 171 185 194 199 200 199 197 189 195 198 195 199 198 199 204 209 209 205 203 198
107 110 113 117 118 117 112 112 120 122 124 124 122 123 126 125 122 116 119 143 168 202 219 224 218 217 217 220 210 203 202 204 209 208 202 207 202 206 208 208 207 205 199
103 101 100 104 109 110 109 114 117 121 125 129 130 127 127 129 145 171 190 203 213 223 229 224 218 222 227 227 221 209 207 206 206 206 207 210 210 208 209 209 205 202 195
101 104 103 108 107 108 111 114 119 124 127 128 131 140 147 164 181 204 215 225 230 235 237 246 245 236 229 228 226 221 216 217 211 207 203 204 206 207 206 206 200 198 195
Height
654 654 653 650 649 648 649 654 658 664 668 671 675 682 688 695 701 706 710 716 720 728 734 740 745 750 755 760 765 770 779 781 788 801 812 817 828 833 840 847 850 855 856
654 651 649 649 646 644 643 646 649 652 659 662 667 671 676 683 689 693 699 703 706 711 715 728 734 742 746 745 745 764 771 777 788 797 808 814 816 829 834 839 843 850 853
653 650 647 645 643 641 639 639 640 644 647 651 656 660 665 670 675 679 684 689 694 699 704 708 718 725 731 738 746 742 761 767 776 790 797 816 814 819 831 833 837 844 853
648 647 644 642 641 636 635 634 633 636 639 641 644 650 655 660 664 667 671 677 681 686 691 696 702 705 711 715 730 735 755 764 763 778 794 802 808 816 819 826 834 840 847
647 644 642 640 638 634 629 629 630 629 629 631 635 639 645 650 653 658 662 666 671 676 681 684 688 691 699 706 709 725 739 749 757 770 779 792 802 808 807 818 824 832 842
643 639 638 637 634 631 626 624 625 625 628 629 630 633 635 642 643 648 651 655 659 665 675 678 676 688 696 699 702 712 714 726 745 755 769 774 783 792 803 809 816 824 835
640 639 637 634 633 627 627 618 619 625 624 624 627 632 631 634 638 642 649 655 657 663 666 668 675 680 687 698 702 706 715 721 725 734 748 759 772 779 790 801 807 813 817
637 636 635 632 627 621 620 618 616 622 619 622 624 627 629 631 634 639 646 650 654 659 663 671 681 676 685 690 701 713 716 722 726 734 743 751 760 769 777 783 791 807 816
630 630 630 628 619 617 618 620 626 612 617 621 623 625 627 628 632 637 644 647 652 658 661 665 675 680 685 692 699 708 716 722 728 734 741 750 758 766 774 786 796 805 813
626 627 625 623 617 615 618 616 621 609 619 621 622 626 627 628 633 636 640 645 652 660 662 671 674 681 688 693 697 708 715 722 725 733 746 753 759 766 771 778 785 797 808
621 620 617 615 614 610 612 617 619 609 617 621 624 627 630 631 633 638 644 647 652 659 663 669 674 682 690 694 697 707 713 720 726 733 744 751 758 766 773 780 783 790 799
613 614 612 613 611 608 611 615 617 611 618 625 625 634 635 635 638 643 647 649 655 658 663 669 675 681 688 692 702 710 716 722 726 734 742 749 756 762 769 775 782 789 795
610 611 608 606 608 611 612 615 616 618 623 626 631 635 638 640 641 646 650 654 658 662 670 675 680 684 686 695 704 712 717 723 727 732 739 746 752 759 766 774 780 785 789
599 600 602 606 610 613 616 615 619 621 622 625 631 635 642 644 645 650 654 656 663 669 676 684 685 687 692 699 708 715 717 720 727 731 737 746 752 759 766 772 777 783 788
592 597 600 604 610 613 617 620 619 621 623 627 631 636 644 647 650 651 658 658 667 671 677 684 688 691 698 705 711 715 719 724 727 729 735 741 749 756 762 767 774 781 786
586 592 597 602 610 616 618 623 626 625 628 631 634 639 645 648 652 658 663 667 670 674 680 684 691 696 701 706 711 715 718 722 726 729 733 739 747 753 759 765 771 774 779
579 589 594 599 608 615 618 624 626 633 634 637 642 646 649 650 657 663 668 671 676 679 682 687 692 696 699 704 710 714 717 721 725 730 733 740 746 752 757 761 766 768 772
578 584 591 601 610 616 621 626 629 633 640 646 650 654 654 657 662 666 671 675 678 682 684 689 693 696 701 706 710 713 716 718 722 728 735 739 744 749 753 756 760 762 767
578 585 598 606 613 619 625 630 634 637 644 649 657 661 661 664 666 671 675 676 678 684 687 692 694 697 701 707 710 710 711 715 721 727 731 735 740 744 749 751 754 759 762
586 592 603 610 618 624 630 632 639 642 648 653 658 662 662 666 670 674 677 679 682 685 690 691 693 698 700 704 705 708 711 715 720 725 728 733 738 741 744 748 750 753 757
599 606 612 617 624 629 633 638 642 647 651 656 660 663 667 669 671 676 679 679 681 685 689 692 695 698 702 704 706 705 708 713 718 722 726 731 734 739 740 741 744 749 752
610 615 620 623 628 632 636 639 643 648 652 657 663 668 670 671 672 676 678 680 682 684 687 688 692 697 699 700 704 706 709 710 714 719 722 726 730 732 735 738 740 743 747
619 622 624 627 631 635 637 640 644 649 654 659 663 665 666 668 669 673 676 678 680 682 684 686 691 694 697 700 702 703 702 706 711 714 719 722 725 728 731 733 737 742 745
627 629 630 633 634 637 641 644 648 652 656 658 660 663 666 668 670 672 673 676 678 681 684 687 690 693 695 696 698 698 701 706 709 711 713 718 720 724 727 731 735 738 741
632 633 635 638 641 643 645 648 652 654 657 660 662 663 664 667 671 674 677 678 680 683 685 687 688 689 690 692 694 695 698 702 704 707 710 714 717 721 725 728 731 733 736
637 639 640 643 645 646 649 652 655 657 658 660 661 663 665 667 669 671 673 675 677 679 681 682 683 684 685 687 689 693 695 699 701 705 708 711 715 718 720 723 725 728 732